HOURLY OBS INDEX

062

Central Tablelands - north

MUDGEE AIRPORT AWS

Site: 062101
Alt: 471.0m
4km NE of MUDGEE


  Time     Wind        Temp  DP   Baro     Rain since   Rain past  Vis(m), Cloud(base in m), Weather
  local        km/h                         9am  last   hr   10m    
Thu 13:00  ESE 13/ 22  17.8  6.3  1031.8    0.0   0.0   0.0   0.0   10000|SC1260 
Thu 13:30  ENE 17/ 26  17.8  5.1  1031.5    0.0   0.0   0.0   0.0   10000 
Thu 14:00  ENE 17/ 22  17.9  5.2  1031.3    0.0   0.0   0.0   0.0   10000 
Thu 14:30    E 11/ 17  18.5  5.4  1031.0    0.0   0.0   0.0   0.0   10000 
Thu 15:00    E 13/ 20  18.1  4.3  1030.9    0.0   0.0   0.0   0.0   10000 
Thu 15:30    E 15/ 22  17.8  4.7  1030.8    0.0   0.0   0.0   0.0   10000 
Thu 16:00  ENE 15/ 20  17.4  6.0  1030.9    0.0   0.0   0.0   0.0   10000|SC1620 
Thu 16:30    E 13/ 22  16.7  5.3  1031.1    0.0   0.0   0.0   0.0   10000 
Thu 17:00    E 15/ 19  15.6  4.9  1031.3    0.0   0.0   0.0   0.0   10000 
Thu 17:30  ENE  9/ 11  14.4  5.0  1031.8    0.0   0.0   0.0   0.0   10000 
Thu 18:00    E 13/ 17  14.3  5.7  1032.1    0.0   0.0   0.0   0.0   10000 

NULLO MOUNTAIN AWS

Site: 062100
Alt: 1130.0m
62km ESE of MUDGEE


  Time     Wind        Temp  DP   Baro     Rain since   Rain past  Vis(m), Cloud(base in m), Weather
  local        km/h                         9am  last   hr   10m    
Thu 13:00    E 15/ 26   9.9  5.7  ------    0.0   0.0   0.0   0.0   ----- 
Thu 13:30    E 15/ 22  10.2  6.0  ------    0.0   0.0   0.0   0.0   ----- 
Thu 14:00    E  9/ 22  10.7  6.1  ------    0.0   0.0   0.0   0.0   ----- 
Thu 14:30    E 13/ 20  10.2  5.4  ------    0.0   0.0   0.0   0.0   ----- 
Thu 15:00    E 15/ 24  10.0  5.2  ------    0.0   0.0   0.0   0.0   ----- 
Thu 15:30    E 15/ 22   9.5  4.9  ------    0.0   0.0   0.0   0.0   ----- 
Thu 16:00    E 13/ 20   9.0  5.0  ------    0.0   0.0   0.0   0.0   ----- 
Thu 16:30    E  9/ 20   8.4  5.2  ------    0.0   0.0   0.0   0.0   ----- 
Thu 17:00    E 11/ 20   7.7  5.3  ------    0.0   0.0   0.0   0.0   ----- 
Thu 17:30    E 15/ 20   7.6  6.4  ------    0.0   0.0   0.0   0.0   ----- 
Thu 18:00    E 19/ 24   7.2  6.3  ------    0.0   0.0   0.0   0.0   -----